CANX-2

Last updated on Sat Aug 15 2026 00:03:44 GMT+0000 (Coordinated Universal Time)

1 32790U 08021H 26226.49925363 .00002143 00000+0 15157-3 0 9992 2 32790 97.8694 207.4425 0009514 198.7693 161.3184 15.05970228993589
UTC large
Height (km)
Speed (km/s)
/
Latitude / Longitude
Inclination (degrees)
Orbital Period (minutes)
Azimuth
Elevation
Range (km)
Doppler Factor

Next 0 passes for location: London (51.5072 / 0.1276)

No passes found over London.
CANX-2